Flag for Canada Weather past 2 weeks in Guelph, Ontario, Canada

55 °F

Light rain. Overcast.

Feels Like: 52 °F
Forecast: 31 / 52 °F
Wind: 15 mph from Southwest

Location: Waterloo Well

Current Time: Nov 27, 2015 at 8:44:14 AM

Latest Report: Nov 27, 2015 at 8:03 AM

Visibility: 9 mi

Pressure: 30.22 "Hg

Humidity: 67%

Dew point: 45 °F

Location of GuelphLocation

Historic Weather in Guelph — Graph


Guelph temperature yesterday

Maximum temperature yesterday: 57 °F (at 10:00 PM)
Minimum temperature yesterday: 41 °F (at 12:00 AM)
Average temperature yesterday: 49 °F

Past Weeks' High & Low Weather Summary

High59 °F (Nov 16, 2:00 PM)100% (Nov 12, 9:55 AM)30.58 "Hg (Nov 12, 9:55 AM)
Low7 °F (Nov 23, 5:00 AM)45% (Nov 20, 12:00 PM)29.31 "Hg (Nov 12, 12:00 PM)
Average40 °F80%30.08 "Hg
* Reported Nov 12 7:00 AM — Nov 27 7:00 AM, Guelph, Weather by CustomWeather, © 2015

Note: Actual official high and low records may vary slightly from our data, if they occured in-between our weather recording intervals... More about our weather records


Guelph weather history for previous 24 hours

Time TempWeatherWind HumidityBarometerVisibility
7:00 AM
Fri, Nov 27
55 °FOvercast.16 mph63%30.21 "Hg9 mi
6:00 AM55 °FMostly cloudy.16 mph63%30.22 "Hg9 mi
5:00 AM57 °FOvercast.18 mph59%30.23 "Hg9 mi
4:00 AM57 °FMostly cloudy.16 mph59%30.25 "Hg9 mi
3:00 AM57 °FOvercast.17 mph55%30.26 "Hg9 mi
2:00 AM57 °FMostly cloudy.16 mph55%30.27 "Hg9 mi
1:00 AM57 °FOvercast.22 mph55%30.28 "Hg9 mi
12:00 AM57 °FOvercast.20 mph59%30.29 "Hg9 mi
11:00 PM
Thu, Nov 26
57 °FPartly cloudy.22 mph59%30.29 "Hg9 mi
10:00 PM57 °FPassing clouds.20 mph63%30.31 "Hg9 mi
9:00 PM55 °FMostly cloudy.15 mph67%30.33 "Hg9 mi
8:00 PM54 °FPassing clouds.15 mph72%30.34 "Hg9 mi
7:00 PM55 °FOvercast.13 mph63%30.36 "Hg9 mi
6:00 PM54 °FPassing clouds.14 mph67%30.36 "Hg9 mi
5:00 PM54 °FMostly cloudy.14 mph67%30.37 "Hg9 mi
4:00 PM54 °FBroken clouds.17 mph67%30.38 "Hg9 mi
3:00 PM54 °FMostly cloudy.18 mph67%30.38 "Hg9 mi
2:00 PM54 °FMostly cloudy.18 mph63%30.39 "Hg9 mi
1:00 PM54 °FOvercast.21 mph63%30.42 "Hg9 mi
12:00 PM52 °FCloudy.18 mph62%30.44 "Hg9 mi
11:00 AM50 °FMostly cloudy.15 mph67%30.46 "Hg9 mi
10:00 AM48 °FLight rain. Cloudy.17 mph66%30.48 "Hg9 mi
9:56 AM48 °FLight rain. Cloudy.16 mph66%30.48 "Hg9 mi
9:00 AM46 °FMostly cloudy.13 mph71%30.48 "Hg9 mi
8:00 AM46 °FOvercast.13 mph66%30.48 "Hg9 mi
Weather by CustomWeather, © 2015

See weather overviewHow to use our weather pages